Location: Newark
(23.5328°S, 46.7919°W)
Time: 02:16:28
(UTC+00:00)

ISS - Pass Details

Date: 10 March 2021
Orbit: 418 x 422 km, 51.6° (Epoch: 13 April)

Event Time Altitude Azimuth Distance (km) Brightness Sun altitude
Rises 22:41:57 0° 245° (WSW) 2,384 1.6 -17.7°
Reaches altitude 10° 22:44:51 10° 272° (W) 1,509 0.2 -18.4°
Maximum altitude 22:46:39 14° 304° (NW) 1,293 -0.7 -18.8°
Drops below altitude 10° 22:48:28 10° 337° (NNW) 1,498 -0.8 -19.2°
Enters shadow 22:49:48 - 353° (N) 1,853 -0.5 -19.5°
